FW3204 Weather Reports


time (UTC)temp
C
wind
direction
speed
KPH
gust
KPH
rain 1hr
cm
rain 24hr
cm
rain mn
cm
humidity
%
barometer
mb
20260507204529 20 136 0.0 6.4 0.00 0.00 0.00 27 1009.9
20260507204028 20 136 0.0 4.8 0.00 0.00 0.00 28 1010.0
20260507203528 20 136 1.6 4.8 0.00 0.00 0.00 25 1010.0
20260507203028 20 137 0.0 8.0 0.00 0.00 0.00 26 1009.9
20260507202528 20 137 1.6 8.0 0.00 0.00 0.00 24 1009.9
20260507202031 21 148 0.0 8.0 0.00 0.00 0.00 24 1009.9
20260507201527 21 198 0.0 4.8 0.00 0.00 0.00 24 1009.9
20260507201027 21 198 1.6 3.2 0.00 0.00 0.00 23 1009.8
20260507200526 21 198 0.0 3.2 0.00 0.00 0.00 22 1009.9
20260507200026 21 198 0.0 3.2 0.00 0.00 0.00 23 1009.9
20260507195529 21 198 0.0 8.0 0.00 0.00 0.00 22 1010.2
20260507195024 21 198 1.6 8.0 0.00 0.00 0.00 24 1010.1
20260507194534 20 213 0.0 4.8 0.00 0.00 0.00 25 1010.2
20260507194023 20 213 1.6 6.4 0.00 0.00 0.00 24 1010.3
20260507193523 20 213 0.0 6.4 0.00 0.00 0.00 25 1010.4
20260507193023 20 215 1.6 6.4 0.00 0.00 0.00 25 1010.4
20260507192521 21 218 3.2 6.4 0.00 0.00 0.00 26 1010.5
20260507192020 21 221 0.0 6.4 0.00 0.00 0.00 25 1010.5
20260507191519 20 221 1.6 6.4 0.00 0.00 0.00 25 1010.5
20260507191021 20 221 0.0 6.4 0.00 0.00 0.00 24 1010.6
20260507190518 20 221 1.6 12.9 0.00 0.00 0.00 24 1010.8
20260507190022 20 221 1.6 12.9 0.00 0.00 0.00 25 1010.9
20260507185520 20 194 3.2 9.7 0.00 0.00 0.00 24 1011.0
20260507185017 20 193 1.6 8.0 0.00 0.00 0.00 24 1010.9
20260507184519 20 219 0.0 4.8 0.00 0.00 0.00 26 1010.9
20260507184015 19 218 0.0 6.4 0.00 0.00 0.00 27 1011.0
20260507183513 19 232 0.0 9.7 0.00 0.00 0.00 25 1011.0
20260507183017 19 228 1.6 6.4 0.00 0.00 0.00 28 1011.0
20260507182512 18 213 0.0 6.4 0.00 0.00 0.00 28 1011.0
20260507182011 18 213 1.6 9.7 0.00 0.00 0.00 26 1011.1
20260507181510 18 229 1.6 9.7 0.00 0.00 0.00 28 1011.1
20260507181010 18 188 1.6 6.4 0.00 0.00 0.00 29 1011.1
20260507180510 17 194 0.0 8.0 0.00 0.00 0.00 28 1011.2
20260507180012 17 194 1.6 6.4 0.00 0.00 0.00 26 1011.3
20260507175509 18 193 1.6 6.4 0.00 0.00 0.00 28 1011.4
20260507175009 17 199 0.0 8.0 0.00 0.00 0.00 28 1011.4
20260507174513 17 204 3.2 12.9 0.00 0.00 0.00 27 1011.7
20260507174006 18 157 3.2 12.9 0.00 0.00 0.00 27 1011.8
20260507173508 17 193 0.0 6.4 0.00 0.00 0.00 29 1011.8
20260507173015 17 193 1.6 8.0 0.00 0.00 0.00 28 1012.0
20260507172505 17 192 1.6 8.0 0.00 0.00 0.00 28 1012.2
20260507172004 17 206 1.6 6.4 0.00 0.00 0.00 27 1012.2
20260507171501 17 199 1.6 12.9 0.00 0.00 0.00 29 1012.3
20260507171102 17 180 3.2 12.9 0.00 0.00 0.00 28 1012.4
20260507170600 17 183 1.6 11.3 0.00 0.00 0.00 29 1012.4
20260507170059 16 163 0.0 11.3 0.00 0.00 0.00 32 1012.5
20260507165557 16 180 3.2 12.9 0.00 0.00 0.00 28 1012.6
20260507165100 16 179 1.6 9.7 0.00 0.00 0.00 30 1012.5
20260507164629 16 229 1.6 11.3 0.00 0.00 0.00 31 1012.5
20260507164057 16 144 3.2 11.3 0.00 0.00 0.00 30 1012.7
20260507163554 16 134 0.0 11.3 0.00 0.00 0.00 30 1012.8
20260507163058 16 208 0.0 3.2 0.00 0.00 0.00 29 1012.8
20260507162554 16 209 0.0 6.4 0.00 0.00 0.00 31 1012.8
20260507162052 15 209 1.6 11.3 0.00 0.00 0.00 30 1013.1
20260507161557 15 202 1.6 17.7 0.00 0.00 0.00 30 1013.1
20260507161054 15 220 1.6 12.9 0.00 0.00 0.00 32 1013.1
20260507160549 15 229 3.2 8.0 0.00 0.00 0.00 35 1013.2
20260507160049 15 176 1.6 14.5 0.00 0.00 0.00 32 1013.4
20260507155547 15 148 3.2 14.5 0.00 0.00 0.00 32 1013.4
20260507155048 15 248 0.0 16.1 0.00 0.00 0.00 33 1013.5
20260507154551 15 175 3.2 16.1 0.00 0.00 0.00 33 1013.5
20260507154046 14 194 1.6 9.7 0.00 0.00 0.00 33 1013.4
20260507153547 14 221 3.2 11.3 0.00 0.00 0.00 33 1013.6
20260507153044 14 167 1.6 9.7 0.00 0.00 0.00 34 1013.6
20260507152545 14 177 1.6 9.7 0.00 0.00 0.00 34 1013.6
20260507152044 13 180 1.6 9.7 0.00 0.00 0.00 36 1013.6
20260507151540 13 171 1.6 14.5 0.00 0.00 0.00 35 1013.6
20260507151042 13 205 1.6 14.5 0.00 0.00 0.00 38 1013.7
20260507150538 13 217 1.6 12.9 0.00 0.00 0.00 38 1013.9
20260507150043 13 219 3.2 9.7 0.00 0.00 0.00 37 1013.7
20260507145537 13 236 3.2 11.3 0.00 0.03 0.00 38 1013.9
20260507145037 12 177 3.2 11.3 0.00 0.03 0.00 38 1014.0
20260507144539 12 196 1.6 8.0 0.00 0.03 0.00 39 1014.1
20260507144036 12 200 1.6 4.8 0.00 0.03 0.00 42 1014.1
20260507143534 12 200 0.0 9.7 0.00 0.03 0.00 41 1014.1
20260507143039 12 200 1.6 9.7 0.00 0.03 0.00 41 1014.4
20260507142532 12 197 0.0 8.0 0.00 0.03 0.00 41 1014.3
20260507142033 12 190 0.0 9.7 0.00 0.03 0.00 43 1014.3
20260507141533 11 185 0.0 9.7 0.00 0.03 0.00 43 1014.3
20260507141031 11 196 1.6 8.0 0.00 0.03 0.00 43 1014.4
20260507140530 11 193 1.6 8.0 0.00 0.03 0.00 43 1014.5
20260507140029 11 202 1.6 8.0 0.00 0.03 0.00 44 1014.6
20260507135528 11 199 0.0 6.4 0.00 0.08 0.00 45 1014.9
20260507135028 11 199 0.0 6.4 0.00 0.08 0.00 44 1014.9
20260507134528 11 199 0.0 8.0 0.00 0.08 0.00 45 1014.9
20260507134027 11 198 0.0 6.4 0.00 0.08 0.00 45 1015.0
20260507133530 11 197 1.6 8.0 0.00 0.08 0.00 45 1014.8
20260507133029 11 196 0.0 8.0 0.00 0.08 0.00 45 1014.9
20260507132527 10 196 1.6 8.0 0.00 0.08 0.00 45 1014.8
20260507132026 10 200 1.6 6.4 0.00 0.08 0.00 45 1015.0
20260507131525 10 201 1.6 6.4 0.00 0.08 0.00 45 1015.0
20260507131026 10 218 0.0 6.4 0.00 0.08 0.00 45 1015.0
20260507130525 10 217 1.6 6.4 0.00 0.08 0.00 45 1014.9
20260507130028 10 217 0.0 8.0 0.00 0.08 0.00 45 1015.0
20260507125527 10 221 0.0 8.0 0.00 0.28 0.00 45 1015.1
20260507125024 10 225 0.0 8.0 0.00 0.28 0.00 46 1015.0
20260507124533 10 225 0.0 8.0 0.00 0.28 0.00 46 1015.1
20260507124027 10 217 0.0 8.0 0.00 0.28 0.00 47 1015.0
20260507123522 10 217 1.6 6.4 0.00 0.28 0.00 48 1014.9
20260507123022 10 217 1.6 6.4 0.00 0.28 0.00 47 1014.8
20260507122519 10 215 1.6 4.8 0.00 0.28 0.00 48 1014.9
20260507122018 10 217 0.0 4.8 0.00 0.28 0.00 48 1014.8
20260507121517 10 217 0.0 4.8 0.00 0.28 0.00 50 1014.9
20260507121017 9 217 1.6 4.8 0.00 0.28 0.00 49 1014.7
20260507120521 9 218 0.0 9.7 0.00 0.28 0.00 49 1014.8
20260507120015 9 218 1.6 9.7 0.00 0.28 0.00 51 1014.6
20260507115515 9 202 1.6 8.0 0.00 0.41 0.00 49 1014.5
20260507115017 9 185 1.6 8.0 0.00 0.41 0.00 50 1014.5
20260507114512 9 192 1.6 6.4 0.00 0.41 0.00 52 1014.5
20260507114016 9 193 0.0 4.8 0.00 0.41 0.00 52 1014.5
20260507113510 9 192 0.0 6.4 0.00 0.41 0.00 51 1014.3
20260507113032 9 193 1.6 6.4 0.00 0.41 0.00 51 1014.4
20260507112511 9 194 1.6 4.8 0.00 0.41 0.00 52 1014.2
20260507112011 9 194 1.6 9.7 0.00 0.41 0.00 52 1014.0
20260507111509 9 196 3.2 9.7 0.00 0.41 0.00 51 1014.3
20260507111008 9 196 1.6 6.4 0.00 0.41 0.00 51 1014.3
20260507110508 9 196 0.0 8.0 0.00 0.41 0.00 53 1014.1
20260507110011 9 196 1.6 8.0 0.00 0.41 0.00 51 1014.2
20260507105506 9 199 1.6 6.4 0.00 0.41 0.00 51 1014.2
20260507105005 9 196 1.6 8.0 0.00 0.41 0.00 52 1014.1
20260507104505 9 196 1.6 8.0 0.00 0.41 0.00 52 1014.1
20260507104007 9 175 1.6 6.4 0.00 0.41 0.00 52 1014.1
20260507103505 9 169 1.6 9.7 0.00 0.41 0.00 53 1014.0
20260507103001 9 208 0.0 6.4 0.00 0.41 0.00 54 1013.9
20260507102600 9 209 1.6 8.0 0.00 0.41 0.00 52 1013.8
20260507102059 10 215 1.6 8.0 0.00 0.41 0.00 52 1013.9
20260507101559 10 155 0.0 8.0 0.00 0.41 0.00 53 1013.7
20260507101058 10 155 1.6 9.7 0.00 0.41 0.00 52 1013.5
20260507100601 10 153 1.6 11.3 0.00 0.41 0.00 52 1013.5
20260507100110 10 148 1.6 11.3 0.00 0.41 0.00 52 1013.4
20260507095558 10 152 3.2 11.3 0.00 0.41 0.00 52 1013.4
20260507095055 10 192 3.2 9.7 0.00 0.41 0.00 52 1013.2
20260507094604 10 178 1.6 11.3 0.00 0.41 0.00 52 1013.2
20260507094055 10 192 4.8 11.3 0.00 0.41 0.00 51 1013.1
20260507093555 10 178 1.6 12.9 0.00 0.41 0.00 52 1013.1
20260507093055 10 172 1.6 12.9 0.00 0.41 0.00 53 1013.1
20260507092554 10 155 4.8 16.1 0.00 0.41 0.00 53 1013.1
20260507092056 10 195 1.6 16.1 0.00 0.41 0.00 53 1013.1
20260507091615 10 167 4.8 11.3 0.00 0.41 0.00 53 1013.2
20260507091052 10 225 4.8 11.3 0.00 0.41 0.00 53 1013.1
20260507090551 10 208 3.2 14.5 0.00 0.41 0.00 54 1013.1
20260507090051 10 152 3.2 14.5 0.00 0.41 0.00 52 1013.2
20260507085550 10 158 3.2 12.9 0.00 0.41 0.00 53 1013.3
20260507085050 10 183 4.8 14.5 0.00 0.41 0.00 53 1013.2
20260507084603 10 204 3.2 12.9 0.00 0.41 0.00 54 1013.2
20260507084049 10 198 3.2 11.3 0.00 0.41 0.00 54 1013.3
20260507083555 10 180 3.2 9.7 0.00 0.41 0.00 55 1013.3
20260507083049 10 198 3.2 6.4 0.00 0.41 0.00 55 1013.3
20260507082548 10 185 1.6 8.0 0.00 0.41 0.00 55 1013.2
20260507082048 10 185 1.6 8.0 0.00 0.41 0.00 54 1013.3
20260507081553 10 184 3.2 12.9 0.00 0.41 0.00 55 1013.3
20260507081048 10 207 3.2 12.9 0.00 0.41 0.00 55 1013.1
20260507080545 10 172 4.8 14.5 0.00 0.41 0.00 55 1013.1
20260507080046 10 167 4.8 14.5 0.00 0.41 0.00 55 1012.8
20260507075544 10 192 4.8 11.3 0.00 0.41 0.00 55 1012.5
20260507075045 10 158 3.2 11.3 0.00 0.41 0.00 55 1012.5
20260507074549 10 207 3.2 11.3 0.00 0.41 0.00 55 1012.4
20260507074048 10 213 3.2 14.5 0.00 0.41 0.00 56 1012.5
20260507073543 10 169 4.8 14.5 0.00 0.41 0.00 56 1012.5
20260507073043 10 197 1.6 17.7 0.00 0.41 0.00 57 1012.5
20260507072543 10 161 3.2 17.7 0.00 0.41 0.00 58 1012.4
20260507072044 10 165 3.2 11.3 0.00 0.41 0.00 57 1012.4
20260507071540 10 171 1.6 8.0 0.00 0.41 0.00 57 1012.5
20260507071040 10 172 3.2 11.3 0.00 0.41 0.00 58 1012.2
20260507070540 10 163 4.8 11.3 0.00 0.41 0.00 57 1012.3
20260507070043 10 216 3.2 16.1 0.00 0.41 0.00 58 1012.3
20260507065540 10 163 6.4 16.1 0.00 0.41 0.00 57 1012.4
20260507065038 10 140 3.2 14.5 0.00 0.41 0.00 57 1012.2
20260507064539 10 173 4.8 14.5 0.00 0.41 0.00 57 1012.3
20260507064040 10 159 4.8 12.9 0.00 0.41 0.00 58 1012.3
20260507063537 10 175 4.8 12.9 0.00 0.41 0.00 58 1012.3
20260507063041 10 167 4.8 14.5 0.00 0.41 0.00 58 1012.6
20260507062535 10 159 4.8 12.9 0.00 0.41 0.00 57 1012.6
20260507062035 10 164 4.8 12.9 0.00 0.41 0.00 58 1012.7
20260507061537 11 190 3.2 16.1 0.00 0.41 0.00 58 1012.5
20260507061032 11 173 4.8 9.7 0.00 0.41 0.00 59 1012.8
20260507060531 11 174 3.2 11.3 0.00 0.41 0.00 59 1012.9
20260507060030 11 181 3.2 12.9 0.00 0.41 0.00 58 1012.7
20260507055530 11 176 3.2 12.9 0.00 0.41 0.00 58 1012.7
20260507055029 11 144 3.2 11.3 0.00 0.41 0.00 57 1012.8
20260507054529 11 210 3.2 11.3 0.00 0.41 0.00 57 1012.9
20260507054029 11 185 3.2 12.9 0.00 0.41 0.00 57 1012.7
20260507053528 11 163 1.6 12.9 0.00 0.41 0.00 58 1012.7
20260507053028 11 169 3.2 12.9 0.00 0.41 0.00 58 1012.7
20260507052527 11 222 3.2 12.9 0.00 0.41 0.00 58 1012.6
20260507052027 11 221 1.6 12.9 0.00 0.41 0.00 58 1012.6
20260507051527 11 180 1.6 12.9 0.00 0.41 0.00 58 1012.7
20260507051027 11 164 3.2 12.9 0.00 0.41 0.00 58 1012.6
20260507050525 11 175 4.8 9.7 0.00 0.41 0.00 58 1012.7
20260507050029 11 167 3.2 9.7 0.00 0.41 0.00 58 1012.8
20260507045529 11 183 4.8 14.5 0.00 0.41 0.00 58 1012.7
20260507045024 11 153 6.4 14.5 0.00 0.41 0.00 58 1012.9
20260507044523 11 213 1.6 9.7 0.00 0.41 0.00 59 1012.9
20260507044023 11 232 3.2 9.7 0.00 0.41 0.00 58 1013.0
20260507043522 11 187 1.6 8.0 0.00 0.41 0.00 58 1012.5
20260507043026 11 198 1.6 12.9 0.00 0.41 0.00 58 1012.1
20260507042522 11 164 1.6 12.9 0.00 0.41 0.00 58 1012.2
20260507042024 11 188 3.2 19.3 0.00 0.41 0.00 59 1012.6
20260507041520 11 194 4.8 19.3 0.00 0.41 0.00 59 1012.5
20260507041019 11 173 4.8 16.1 0.00 0.41 0.00 59 1012.8
20260507040518 11 172 4.8 16.1 0.00 0.41 0.00 59 1012.6
20260507040016 12 198 1.6 9.7 0.00 0.41 0.00 59 1012.3
20260507035517 12 160 3.2 12.9 0.00 0.41 0.41 59 1012.0
20260507035015 12 215 3.2 12.9 0.00 0.41 0.41 59 1012.2
20260507034521 12 173 4.8 12.9 0.00 0.41 0.41 59 1012.5
20260507034015 12 139 6.4 17.7 0.00 0.41 0.41 59 1012.6
20260507033512 12 205 6.4 17.7 0.00 0.41 0.41 59 1012.5
20260507033014 12 145 3.2 16.1 0.00 0.41 0.41 58 1012.2
20260507032512 12 173 4.8 14.5 0.00 0.41 0.41 58 1012.2
20260507032010 12 186 4.8 12.9 0.00 0.41 0.41 57 1011.8
20260507031507 13 173 3.2 11.3 0.00 0.41 0.41 57 1011.9
20260507031006 13 198 4.8 16.1 0.00 0.41 0.41 56 1012.1
20260507030506 13 222 4.8 16.1 0.00 0.41 0.41 57 1012.2
20260507030007 13 184 6.4 14.5 0.00 0.41 0.41 57 1012.0
20260507025505 13 155 3.2 14.5 0.00 0.41 0.41 58 1012.3
20260507025003 13 198 6.4 20.9 0.00 0.41 0.41 57 1012.2
20260507024502 13 176 3.2 11.3 0.00 0.41 0.41 58 1012.2
20260507024002 13 169 4.8 14.5 0.00 0.41 0.41 58 1012.1
20260507023501 13 159 4.8 14.5 0.00 0.41 0.41 57 1011.9
20260507023001 13 195 4.8 12.9 0.00 0.41 0.41 57 1011.8
20260507022601 13 186 3.2 8.0 0.00 0.41 0.41 57 1011.8
20260507022101 13 194 1.6 8.0 0.00 0.41 0.41 57 1011.7
20260507021600 13 186 3.2 8.0 0.00 0.41 0.41 57 1011.8
20260507021059 13 189 3.2 11.3 0.00 0.41 0.41 57 1011.7
20260507020600 13 182 3.2 11.3 0.00 0.41 0.41 57 1011.8
20260507020104 14 193 3.2 9.7 0.00 0.41 0.41 57 1011.5
20260507015559 14 184 4.8 9.7 0.00 0.41 0.41 57 1011.6
20260507015058 14 200 1.6 9.7 0.00 0.41 0.41 58 1011.7
20260507014602 14 182 3.2 9.7 0.00 0.41 0.41 57 1011.8
20260507014058 14 174 4.8 11.3 0.00 0.41 0.41 57 1011.8
20260507013600 14 207 4.8 11.3 0.00 0.41 0.41 57 1011.8
20260507013057 14 173 4.8 11.3 0.00 0.41 0.41 57 1011.7
20260507012556 14 169 4.8 12.9 0.00 0.41 0.41 57 1011.7
20260507012056 14 178 0.0 9.7 0.00 0.41 0.41 59 1011.7
20260507011555 14 178 3.2 9.7 0.00 0.41 0.41 58 1011.7
20260507011054 14 162 4.8 11.3 0.00 0.41 0.41 57 1011.5
20260507010554 14 142 3.2 12.9 0.00 0.41 0.41 58 1011.3
20260507010054 14 180 4.8 14.5 0.00 0.41 0.41 58 1011.7
20260507005553 15 200 3.2 12.9 0.00 0.41 0.41 59 1011.9
20260507005054 15 179 4.8 12.9 0.00 0.41 0.41 59 1011.8
20260507004551 15 164 3.2 16.1 0.00 0.41 0.41 59 1011.9
20260507004051 15 173 4.8 17.7 0.00 0.41 0.41 59 1011.8
20260507003551 15 174 1.6 9.7 0.00 0.41 0.41 61 1011.8
20260507003105 15 178 3.2 8.0 0.00 0.41 0.41 61 1011.6
20260507002551 15 161 3.2 14.5 0.00 0.41 0.41 60 1011.8
20260507002051 15 166 4.8 14.5 0.00 0.41 0.41 60 1011.8
20260507001611 15 174 1.6 9.7 0.00 0.41 0.41 60 1011.7
20260507001049 16 172 3.2 14.5 0.00 0.41 0.41 59 1011.8
20260507000552 16 147 4.8 14.5 0.00 0.41 0.41 58 1011.8
20260507000048 16 200 3.2 8.0 0.00 0.41 0.41 59 1011.5
20260506235551 16 202 1.6 8.0 0.00 0.41 0.41 59 1011.1
20260506235047 16 210 1.6 8.0 0.00 0.41 0.41 60 1011.3
20260506234553 16 200 3.2 8.0 0.00 0.41 0.41 59 1011.4
20260506234051 16 207 1.6 8.0 0.00 0.41 0.41 59 1011.3
20260506233548 16 229 3.2 8.0 0.00 0.41 0.41 59 1011.2
20260506233049 16 205 1.6 6.4 0.00 0.41 0.41 60 1011.0
20260506232547 16 205 1.6 6.4 0.00 0.41 0.41 59 1011.0
20260506232047 17 214 1.6 6.4 0.00 0.41 0.41 60 1010.8
20260506231554 17 207 0.0 6.4 0.00 0.41 0.41 60 1010.6
20260506231046 17 205 1.6 6.4 0.00 0.41 0.41 59 1010.7
20260506230546 17 207 0.0 6.4 0.00 0.41 0.41 59 1010.9
20260506230055 17 209 0.0 0.0 0.00 0.41 0.41 59 1010.6
20260506225550 17 209 0.0 6.4 0.00 0.41 0.41 59 1010.5
20260506225046 17 209 0.0 8.0 0.00 0.41 0.41 58 1010.4
20260506224546 18 213 0.0 14.5 0.00 0.41 0.41 58 1010.5
20260506224045 18 205 0.0 14.5 0.00 0.41 0.41 60 1010.2
20260506223548 18 5 0.0 0.0 0.00 0.41 0.41 59 1010.2
20260506223045 18 5 0.0 0.0 0.00 0.41 0.41 60 1010.2
20260506222546 18 5 0.0 0.0 0.00 0.41 0.41 59 1010.2
20260506222046 18 5 0.0 0.0 0.00 0.41 0.41 59 1010.0
20260506221602 18 5 0.0 0.0 0.00 0.41 0.41 59 1010.1
20260506221047 18 5 0.0 0.0 0.00 0.41 0.41 59 1010.1
20260506220544 18 5 0.0 0.0 0.00 0.41 0.41 60 1010.0
20260506220044 18 5 0.0 0.0 0.00 0.41 0.41 60 1009.9
20260506215544 18 5 0.0 0.0 0.00 0.41 0.41 59 1009.7
20260506215044 18 5 0.0 0.0 0.00 0.41 0.41 60 1009.8
20260506214544 18 5 0.0 0.0 0.00 0.41 0.41 61 1009.7
20260506214044 18 5 0.0 0.0 0.00 0.41 0.41 60 1009.8
20260506213543 18 5 0.0 0.0 0.00 0.41 0.41 61 1009.7
20260506213047 18 5 0.0 1.6 0.00 0.41 0.41 61 1009.7
20260506212543 18 5 0.0 4.8 0.00 0.41 0.41 61 1009.8
20260506212043 18 5 0.0 4.8 0.00 0.41 0.41 60 1009.8
20260506211543 18 5 0.0 4.8 0.00 0.41 0.41 60 1009.7
20260506211043 18 5 0.0 3.2 0.00 0.41 0.41 60 1009.6
20260506210543 18 5 0.0 4.8 0.00 0.41 0.41 60 1009.4
20260506210053 18 5 0.0 4.8 0.00 0.41 0.41 59 1009.3
20260506205546 18 5 0.0 4.8 0.00 0.41 0.41 59 1009.2
20260506205042 18 5 0.0 4.8 0.00 0.41 0.41 59 1009.3